CZ-6A DEB, 54935

Orbit data source: Space-Track

CZ-6A DEB, 54935 is space debris in SSO originally from a launch on Fri, 11 Nov 2022 UTC launched from the Taiyaun Space Center, China (TSC). Debris objects in space refer to the collection of defunct objects orbiting the Earth. Examples of debris include non-operational satellites, rocket bodies, and fragments generated from explosions, collisions, or faulty payload assembly.

Loading next visibility...
Identifier
54935, 2022-151RY
Orbit
SSO
Country
Flag of CNCN / PRC
Related business
Manufacturer
SAST
Mission
Spacecraft
Bus & Motor
Unknown
Mass
Unknown
Launch date (UTC)
2022-11-11 (4 years ago)
Launch vehicle
Unknown
Launch site
Taiyaun Space Center, China (TSC)
Object type
Payload
Rocket body
Debris
Shape & HBR
Unknown shape, 0.1 m
Radar Cross Section
Small (<0.1 m²)

Expand to show TLE details & history
Last TLE update: 2 days ago

TLE from 2 days ago
0 CZ-6A DEB
1 54935U 22151RY  26171.05752263  .00002301  00000-0  85209-3 0  9997
2 54935  98.7269 196.5847 0004203  17.1125 343.0200 14.33283633187032
Epoch: 2026-06-20T01:22Z
TLE epoch observation values (Epoch: 2026-06-20T01:22:49.955Z)
Latitude
0.00002°
Longitude
-92.40106°
Altitude
780.83 km
Speed
7.465 km/s
True Right ascension
13h 06m 20s
True Declination
0° 00' 00"
Sunlit
Object was in daylight at epoch
Visualization orbit readout
Latitude
Unknown
Longitude
Unknown
Altitude
Unknown
Speed
Unknown
Apparent Right ascension
Unknown
Apparent Declination
Unknown
Sunlit
N/A
Visualization observer readout
Local Sidereal Time
21:25:39
Azimuth
Unknown
Elevation
Unknown
Doppler factor
Unknown
Orbital elements
Apogee altitude
780.925 km
Perigee altitude
774.91 km
Semi-major axis
7,156.055 km
Eccentricity
0.00042
Inclination
98.7269°
RAAN
196.5847°
Arg. of periapsis
17.1125°
True anomaly
343.00593°
Mean anomaly
343.02°
Eccentric anomaly
343.01296°
Mean motion
3.58536 °/min
Orbital period
100.41 mins
BSTAR
0.00085209
Loading maneuver chart data...
Computing Atmospheric mass density...
Loading historical data...
Loading historical data...
Loading historical data...
Loading historical data...
Loading historical data...
Loading historical data...
Loading historical data...

Documentation

Showing up to 5 results
|